Tracking 29892 objects as of 21-Nov-2024
HD Live streaming from Space Station
objects crossing your sky now

FENGYUN 1C DEB

Track FENGYUN 1C DEB now!
10-day predictions


NORAD ID: 31021
Int'l Code: 1999-025BDP
Perigee: 467.4 km
Apogee: 883.9 km
Inclination: 98.3 °
Period: 98.1 minutes
Semi major axis: 7046 km
RCS: 0.0122 m2 (small)
Launch date: May 10, 1999
Source: People's Republic of China (PRC)
Launch site: Taiyaun Space Center, China (TSC)

Note: This is SATELLITE DEBRIS
Your satellite tracking list
Your tracking list is empty




NASA's NSSDC Master Catalog

Two Line Element Set (TLE):
1 31021U 99025BDP 24324.53774783  .00006769  00000-0  61642-3 0  9991
2 31021  98.3384  58.7572 0295525  32.9808 328.9451 14.67671971933877
Source of the keplerian elements: AFSPC